Location: Brati?a
(46.1333°N, 22.7833°E)
Time: 22:28:25
(UTC+00:00)

Daily predictions for brighter satellites

Satellite Brightness Start Highest point End
(mag) Time Altitude Azimuth Time Altitude Azimuth Time Altitude Azimuth
ATLAS 5 CENTAUR R/B 3.3 18:12:30 10° NNW 18:17:27 35° NE 18:23:11 10° ESE
Resurs 1-3 3.9 18:15:09 10° SSE 18:19:25 53° ENE 18:23:42 10° N
Cosmos 1743 Rocket 3.6 18:15:20 10° N 18:19:39 63° E 18:23:58 10° SSE
CZ-4 R/B 4.3 18:17:07 10° SW 18:19:41 16° W 18:22:13 10° NW
ERS-2 2.5 18:16:46 10° N 18:20:23 69° WNW 18:23:59 10° SSW
Cosmos 1486 Rocket 4.4 18:19:27 10° S 18:24:26 42° ESE 18:29:26 10° NE
S3M 4.5 18:20:45 10° SSE 18:26:43 43° E 18:32:39 10° NNE
Cosmos 1500 Rocket 3.6 18:27:14 10° N 18:31:40 86° ENE 18:36:02 10° S
IGS 5A 4.2 18:28:26 10° SE 18:32:13 35° ENE 18:36:01 10° N
Cosmos 2221 3.1 18:29:30 10° SSW 18:33:44 61° W 18:38:03 10° N
Cosmos 1862 4.5 18:36:04 10° NNW 18:39:53 44° W 18:43:42 10° SSW
USA 186 3.8 18:39:12 10° SSW 18:41:13 20° W 18:43:10 10° NW
Cosmos 1553 Rocket 4.0 18:39:10 10° S 18:45:17 84° E 18:51:32 10° N
FALCON 9 DEB 4.0 18:42:49 10° WNW 18:45:37 34° SW 18:48:00 13° SSE
Cosmos 1933 3.9 18:42:14 10° SSE 18:45:59 38° E 18:49:45 10° NNE
USA 245 4.3 18:46:32 11° E 18:47:14 12° ENE 18:48:18 10° NE
FALCON 9 DEB 4.3 18:49:12 10° WNW 18:51:52 28° SW 18:54:03 13° SSE
Cosmos 1242 Rocket 3.2 18:50:09 11° SSE 18:53:21 35° E 18:56:38 10° NNE
OBJECT-B 2.9 18:51:51 10° SSW 18:54:40 27° W 18:57:30 10° NW
Cosmos 1437 Rocket 2.7 18:51:59 10° S 18:55:49 89° W 18:59:47 10° N
Resurs 01 Rocket 1.6 18:52:09 10° SSE 18:56:35 76° ENE 19:01:02 10° N
DELTA 2 R/B (1) 4.2 18:51:53 10° WSW 18:57:04 40° S 19:01:06 16° SE
Spot 2 Rocket 4.4 18:54:01 14° SE 18:57:45 34° ENE 19:02:17 10° N
CZ-4C R/B 3.7 18:52:22 10° NNW 18:58:53 41° NE 19:06:07 11° ESE
Cosmos 2082 Rocket 4.2 18:56:30 10° N 18:59:54 16° NE 19:03:17 10° ENE
Meteor 1-20 Rocket 4.2 18:54:20 10° N 19:00:00 68° ENE 19:05:02 12° SSE
FALCON 9 DEB 4.1 18:57:52 10° WNW 19:00:37 30° SW 19:02:29 16° SSE
Sich 1 3.0 18:57:48 10° N 19:02:08 75° E 19:06:02 13° SSE
Intercosmos 24 3.6 18:59:22 10° S 19:03:16 72° E 19:06:48 10° NNE
OE (NEXTSAT) 4.3 19:00:21 10° W 19:03:49 90° S 19:06:49 13° E
Cosmos 1782 3.4 19:07:44 18° SSE 19:10:17 38° E 19:14:01 10° NNE
Cosmos 1500 4.4 19:07:38 10° NNE 19:10:49 25° ENE 19:12:18 20° ESE
ERS-1 Rocket 4.0 19:10:52 17° ESE 19:13:54 32° ENE 19:18:19 10° N
Cosmos 1503 Rocket 3.9 19:10:03 10° S 19:15:09 66° ESE 19:20:19 10° NNE
SPOT 5 4.0 19:13:38 18° ESE 19:16:39 33° ENE 19:21:18 10° N
Cosmos 1151 Rocket 3.1 19:21:15 17° S 19:24:26 58° E 19:28:44 10° NNE
Terra 3.1 19:23:30 19° ESE 19:25:48 28° ENE 19:29:49 10° N
Cosmos 2278 Rocket 3.2 19:23:59 21° SE 19:25:52 26° ESE 19:30:27 10° NE
USA 290 2.5 19:25:26 10° NNW 19:28:39 60° WSW 19:30:10 27° S
Cosmos 1602 3.6 19:25:08 10° N 19:29:00 83° E 19:31:09 25° SSE
Meteor 1-25 Rocket 4.5 19:23:48 10° NNW 19:29:39 75° W 19:34:41 14° S
USA 307 4.4 19:27:30 10° NW 19:31:22 32° NNE 19:35:16 10° ENE
CZ-2C R/B 3.6 19:30:09 10° NNE 19:34:39 87° W 19:39:10 10° SSW
Cosmos 1844 Rocket 3.6 19:32:43 10° SW 19:38:08 51° WNW 19:43:35 10° NNE
SPOT 1/Viking Rocket 3.6 19:36:10 20° S 19:39:48 81° WSW 19:45:02 10° NNW
MetOp-B 4.5 19:36:53 16° S 19:41:07 64° WSW 19:46:28 10° NNW
Cosmos 1515 Rocket 4.1 19:40:29 31° SE 19:41:54 40° E 19:46:02 10° NNE
Cosmos 2084 3.6 19:41:37 24° S 19:43:41 45° ESE 19:47:44 10° NE
SL-4 R/B 3.8 19:40:03 10° W 19:43:44 25° SW 19:45:35 20° S
USA 308 4.3 19:40:59 10° NW 19:44:57 35° NNE 19:48:19 13° ENE
ARIANE 5 R/B 2.5 19:43:07 30° SSE 19:45:13 82° ENE 19:49:35 10° NNW
Cosmos 1354 Rocket 4.1 19:41:11 10° SSW 19:46:25 80° WNW 19:51:42 10° NNE
X-37B 0.6 19:44:30 10° W 19:47:39 58° SSW 19:47:53 56° S
SWARM A 4.2 19:45:54 10° N 19:49:13 64° E 19:49:46 53° SE
JB-3 4.2 19:46:44 10° NNE 19:50:39 69° ESE 19:52:04 37° S
Cosmos 1633 Rocket 3.3 19:47:31 10° NNW 19:51:54 67° W 19:54:17 26° S
Cosmos 2184 Rocket 4.4 19:47:40 10° N 19:53:43 48° ENE 19:56:32 29° SE
Milstar 3 4.4 19:45:02 10° SW 19:54:22 24° S 19:56:05 22° SSE
Cosmos 1437 2.2 19:54:17 84° S 19:54:22 88° E 19:57:13 10° N
Cosmos 1709 Rocket 4.2 19:49:10 10° NNW 19:55:14 66° W 19:59:47 18° S
Cosmos 1812 2.7 19:56:30 47° SSE 19:57:19 60° E 20:01:09 10° NNE
Meteor 1-5 Rocket 4.1 19:52:16 10° N 19:57:41 66° ENE 19:59:56 34° SSE
Cosmos 1470 Rocket 3.5 19:56:35 10° N 20:01:06 89° E 20:02:47 38° S
Cosmos 2074 Rocket 4.2 19:55:36 10° N 20:01:50 58° ENE 20:04:41 32° SE
ATLAS 5 CENTAUR R/B 2.7 19:56:48 10° NW 20:02:23 59° WSW 20:05:41 29° S
Cosmos 1328 Rocket 3.8 19:59:49 21° SSW 20:02:43 69° W 20:07:09 10° N
NOSS 3-3 (A) 3.8 19:57:36 10° SSW 20:03:18 82° SE 20:09:53 10° NE
NOSS 3-3 (C) 3.8 19:57:42 10° SSW 20:03:25 82° SE 20:10:00 10° NE
ATLAS 2AS CENTAUR R/B 3.9 20:00:53 10° NNW 20:07:46 37° NNE 20:13:08 14° E
CARTOSAT-1 3.8 20:07:01 34° S 20:08:45 62° W 20:13:03 10° NNW
Cosmos 2315 Rocket 4.5 20:04:52 10° SSW 20:11:09 62° WNW 20:17:30 10° N
Cosmos 1833 Rocket 2.7 20:06:06 10° NNW 20:11:47 76° ENE 20:14:00 38° SE
Meteor 1-14 Rocket 4.5 20:07:17 10° NNW 20:13:09 68° W 20:16:14 28° S
BREEZE-M R/B 2.7 20:12:55 10° W 20:15:12 46° NNW 20:15:12 46° NNW
Cosmos 1933 Rocket 3.4 20:11:17 10° N 20:15:40 83° E 20:16:39 53° SSE
USA 215 4.5 20:09:56 10° ENE 20:15:53 39° NNE 20:21:49 10° NW
Cosmos 1666 2.4 20:13:18 10° N 20:17:03 76° E 20:17:20 70° SE
Cosmos 1538 Rocket 4.0 20:16:28 10° NNW 20:21:53 82° ENE 20:23:35 45° SSE
Iridium 4 Rocket 3.7 20:22:03 35° S 20:24:36 90° E 20:30:33 10° N
USA 305 3.5 20:23:05 10° NW 20:27:16 52° NNE 20:28:37 36° E
Resurs 01 Rocket 4.3 20:31:52 10° WSW 20:33:36 12° W 20:35:20 10° WNW
Cosmos 158 Rocket 3.9 20:29:50 10° NNW 20:34:42 65° ENE 20:35:40 52° ESE
BREEZE M DEB (TANK) 2.9 20:31:53 10° WNW 20:34:07 35° WNW 20:34:07 35° WNW
Meteor 1-27 Rocket 3.9 20:36:14 46° SE 20:37:41 59° E 20:43:29 10° NNE
SJ 16-02 1.2 20:38:19 66° S 20:38:56 83° ESE 20:43:23 10° NNE
Cosmos 1680 Rocket 4.3 20:34:41 10° N 20:39:45 42° ENE 20:41:08 35° E
Cosmos 2228 Rocket 2.9 20:40:06 69° SE 20:40:26 73° E 20:44:54 10° NNE
COSMOS 2406 3.3 20:36:29 10° NNW 20:42:06 65° WSW 20:43:43 45° S
Meteor 2-6 Rocket 4.5 20:41:14 28° SSW 20:44:01 61° WNW 20:49:29 10° N
Cosmos 2082 Rocket 2.2 20:39:23 10° NNW 20:45:02 73° ENE 20:46:29 50° SE
USA 306 3.1 20:42:11 10° NW 20:46:26 65° NNE 20:47:01 57° ENE
CZ-4C R/B 3.1 20:40:42 10° NW 20:47:58 67° WSW 20:51:18 39° SSE
ERS-1 Rocket 4.1 20:50:52 27° SW 20:52:37 35° W 20:57:14 10° NNW
SL-24 DEB 4.3 20:53:26 58° SW 20:54:09 68° W 20:58:44 10° N
SPOT 5 4.1 20:52:52 27° SW 20:54:38 35° W 20:59:25 10° NNW
H-2A R/B 4.2 20:52:42 10° N 20:56:46 48° WNW 20:57:49 39° WSW
Cosmos 1295 Rocket 4.4 20:53:00 10° N 20:59:23 86° E 21:01:13 50° SSE
Cosmos 1271 Rocket 3.4 21:00:22 46° W 21:00:48 49° WNW 21:04:43 10° N
Meteor 1-11 Rocket 3.9 20:55:06 10° NNW 21:01:04 71° W 21:02:44 48° SSW
Terra 2.8 21:02:23 34° SW 21:03:24 38° W 21:07:51 10° NNW
Cosmos 2278 Rocket 2.8 21:05:44 20° SW 21:09:35 53° WNW 21:15:09 10° NNE
USA 307 3.0 21:07:29 10° WNW 21:11:25 74° NW 21:11:25 74° NW
Cosmos 1340 Rocket 3.1 21:10:27 10° N 21:14:05 68° N 21:14:05 68° N
Spot 4 3.9 21:14:20 62° E 21:14:41 65° ENE 21:19:31 10° N
Cosmos 923 Rocket 3.9 21:09:41 10° NNW 21:14:58 80° WSW 21:15:32 70° S
Cosmos 1898 Rocket 3.5 21:17:24 61° ESE 21:17:28 61° ESE 21:22:43 10° NNE
Cosmos 1862 Rocket 4.5 21:19:52 37° ENE 21:19:52 37° ENE 21:23:09 10° NNE
Cosmos 2369 Rocket 3.8 21:21:41 21° E 21:21:41 21° E 21:25:00 10° NE
Cosmos 1544 4.0 21:18:15 10° NNW 21:20:56 45° NNW 21:20:56 45° NNW
Cosmos 1869 Rocket 4.3 21:19:46 10° NNW 21:23:53 43° W 21:23:54 43° W
Cosmos 1536 3.6 21:20:15 10° NNW 21:23:48 45° WNW 21:23:48 45° WNW
USA 308 3.4 21:20:57 10° WNW 21:24:24 55° WNW 21:24:24 55° WNW
SL-8 Rocket 4.1 21:19:17 10° N 21:25:37 67° E 21:26:56 54° SE
Meteor 2-9 Rocket 4.5 21:22:08 10° N 21:27:52 56° ENE 21:28:43 51° ESE
Cosmos 1943 Rocket 2.6 21:30:26 47° E 21:30:26 47° E 21:35:31 10° NE
Cosmos 2084 Rocket 4.4 21:32:25 10° NNW 21:36:28 41° NE 21:36:50 40° ENE
Cosmos 1975 3.9 21:33:25 10° N 21:36:27 37° NE 21:36:27 37° NE
ALOS 2 2.9 21:38:42 59° NE 21:38:42 59° NE 21:42:44 10° N
Meteor 2-4 Rocket 4.5 21:38:27 38° E 21:38:43 38° E 21:43:55 10° NNE
Cosmos 990 Rocket 4.1 21:40:01 62° WSW 21:40:44 71° WNW 21:46:01 10° NNE
Cosmos 44 3.5 21:36:24 10° NNW 21:41:52 74° NE 21:42:24 68° E
Cosmos 1707 Rocket 3.9 21:42:54 58° WNW 21:42:54 58° WNW 21:47:04 10° N
NOSS 3-4 (A) 4.1 21:38:40 10° NW 21:45:32 54° WSW 21:47:02 47° SSW
NOSS 3-4 (C) 4.1 21:38:47 10° NW 21:45:39 55° WSW 21:47:09 48° SSW
Meteor 1-18 Rocket 4.1 21:50:36 70° SE 21:51:00 73° E 21:56:37 10° NNE
Okean 1-7 4.5 21:53:25 28° ENE 21:53:25 28° ENE 21:56:15 10° NNE
Cosmos 2112 Rocket 4.2 21:48:30 10° NNW 21:53:44 58° WSW 21:53:50 58° WSW
Cosmos 864 Rocket 4.3 21:48:13 10° N 21:54:26 85° E 21:55:21 66° SSE
SL-24 R/B - RUBIN 2 3.8 21:51:15 10° NW 21:56:38 83° W 21:56:38 83° W
Cosmos 1238 Rocket 3.8 21:50:47 10° NNW 21:57:08 70° W 21:57:51 63° SW
Cosmos 1959 Rocket 4.3 21:51:01 10° N 21:57:18 89° W 21:58:15 66° S
Cosmos 1743 4.3 21:54:15 10° NNW 21:56:52 30° WNW 21:56:52 30° WNW
USA 215 3.3 21:55:03 31° ESE 21:58:22 74° NNE 22:04:54 10° NW
ATLAS 2AS CENTAUR R/B 2.7 21:52:00 10° NW 21:59:19 71° WSW 22:00:32 59° S
SeaSat 1 3.4 21:54:53 10° NE 21:58:33 35° E 21:58:33 35° E
Cosmos 2297 3.8 22:03:58 60° WSW 22:04:54 73° WNW 22:10:36 10° NNE
BREEZE-M DEB (TANK) 4.4 22:01:14 10° WNW 22:04:40 27° NNW 22:04:40 27° NNW
Cosmos 2181 Rocket 4.0 22:07:22 57° SW 22:08:31 70° W 22:14:40 10° N
Cosmos 1733 Rocket 4.2 22:12:44 10° NNW 22:16:02 34° WNW 22:16:02 34° WNW
SJ 16-02 4.1 22:15:57 10° W 22:18:08 13° NW 22:20:19 10° NNW
Cosmos 2366 rocket 4.1 22:17:15 10° NNW 22:23:16 58° W 22:24:07 53° SW
Cosmos 1937 Rocket 4.0 22:24:06 48° W 22:24:44 51° WNW 22:29:48 10° NNE
Cosmos 1821 Rocket 4.1 22:18:37 10° N 22:25:02 70° E 22:26:15 56° SE
Thor Agena Rocket 3.4 22:22:26 10° NNE 22:27:42 82° ESE 22:27:48 81° SE
Cosmos 1818 3.5 22:22:22 10° NW 22:27:40 72° WSW 22:27:40 72° WSW
Cosmos 2082 Rocket 4.0 22:24:46 10° WNW 22:28:19 18° W 22:28:19 18° W
Cosmos 1908 Rocket 4.0 22:24:07 10° NNW 22:27:56 61° NW 22:27:56 61° NW
Cosmos 2298 Rocket 4.3 22:34:35 54° E 22:34:35 54° E 22:39:33 10° NNE
Cosmos 1048 Rocket 4.1 22:29:57 10° NNW 22:35:16 66° ENE 22:35:45 62° E
Resurs 1-4 Rocket 4.4 22:33:59 10° ENE 22:35:59 12° E 22:37:05 11° E
Gbstr 26 Del rocket 3.8 22:31:09 10° WNW 22:38:11 87° NNE 22:40:00 48° ESE
Nimbus 7 Rocket 4.4 22:32:39 10° N 22:38:30 70° WNW 22:39:29 58° WSW
USA 281 4.2 22:36:11 19° ESE 22:40:30 41° NE 22:46:34 10° NNW
Cosmos 1356 Rocket 4.1 22:37:58 10° N 22:41:40 51° NE 22:41:40 51° NE
Cosmos 1461 3.3 22:53:28 68° NW 22:53:28 68° NW 22:57:56 10° NNE
Cosmos 1703 Rocket 4.2 22:57:18 49° NW 22:57:18 49° NW 23:01:06 10° N
Cosmos 2221 Rocket 4.5 22:59:47 42° E 22:59:47 42° E 23:03:55 10° NNE
Cosmos 1782 Rocket 4.1 22:55:34 10° NNW 22:59:17 54° NW 22:59:17 54° NW
Nadezhda 3 Rocket 4.0 23:02:11 60° SW 23:03:17 73° W 23:09:32 10° N
Cosmos 1378 4.3 23:04:38 41° N 23:04:38 41° N 23:07:12 10° N
Cosmos 2369 Rocket 2.4 23:03:27 54° WSW 23:04:21 62° WNW 23:09:58 10° NNE
Cosmos 2150 Rocket 3.9 23:04:47 81° SSW 23:05:05 90° W 23:10:27 10° NNE
Lacrosse 5 3.8 23:11:02 17° ESE 23:11:02 17° ESE 23:13:22 10° E
Meteor 1-13 Rocket 4.1 23:09:32 69° SW 23:10:05 77° WNW 23:15:40 10° N
RESURS DK-1 3.0 23:06:42 10° NNW 23:09:53 51° NNW 23:09:53 51° NNW
Meteor 1-12 Rocket 4.2 23:06:41 10° NNW 23:12:33 67° W 23:13:07 63° SW
Gblst 52 Del rocket 4.2 23:06:07 10° WNW 23:12:41 82° SSW 23:14:42 44° SE
Cosmos 1943 Rocket 3.5 23:11:55 24° W 23:14:04 32° NW 23:19:04 10° N
SL-27 R/B 4.4 23:11:45 10° NNW 23:13:17 25° NNW 23:13:17 25° NNW
Cosmos 1805 3.9 23:11:28 10° N 23:14:33 53° N 23:14:33 53° N
Cosmos 1733 4.0 23:13:45 10° N 23:16:42 49° NNE 23:16:42 49° NNE
PSLV R/B 4.0 23:14:20 10° N 23:18:26 53° WNW 23:18:26 53° WNW
Cosmos 1726 4.4 23:16:08 10° NNE 23:18:41 17° ENE 23:19:29 16° E
Cosmos 1867 3.4 23:18:57 71° SW 23:19:32 84° NW 23:25:04 10° NE
Cosmos 1607 4.0 23:19:25 55° SW 23:20:58 84° NW 23:27:31 10° NE
Cosmos 1766 3.9 23:17:38 10° N 23:21:04 55° NE 23:21:04 55° NE
Helios 1B rocket 4.2 23:20:19 10° NE 23:23:37 22° E 23:23:44 22° E
Cosmos 2263 4.5 23:22:37 50° WSW 23:23:48 61° WNW 23:29:33 10° NNE
Cosmos 1066 Rocket 4.2 23:26:45 61° SW 23:27:38 72° WNW 23:33:22 10° N
Okean 3 4.2 23:28:08 45° WNW 23:28:08 45° WNW 23:31:50 10° N
EO 1 Del DPAF 4.4 23:24:50 10° N 23:27:38 35° NW 23:27:38 35° NW
Meteor 1-23 Rocket 4.2 23:28:21 63° S 23:29:21 88° E 23:35:13 10° NNE
Cosmos 1605 Rocket 4.0 23:24:02 10° N 23:30:17 77° E 23:32:12 47° SSE
Helios 1A 3.1 23:31:38 69° NNW 23:31:38 69° NNW 23:35:21 10° NNW
ATLAS CENTAUR R/B 1.9 23:33:01 48° NE 23:33:01 48° NE 23:35:52 10° NE
Sich 1 Rocket 4.0 23:31:31 10° NNW 23:35:34 52° WNW 23:35:34 52° WNW
Cosmos 1400 Rocket 3.6 23:32:01 10° N 23:35:59 45° ENE 23:36:19 44° E
Cosmos 1125 Rocket 3.6 23:35:51 57° WSW 23:36:31 63° WNW 23:41:43 10° NNE
SeaSat 1 3.6 23:32:29 10° NNE 23:36:57 35° NW 23:38:19 30° W
Okean 1 Rocket 4.0 23:33:13 10° N 23:37:25 41° ENE 23:38:20 36° ESE
Cosmos 1656 Rocket 4.1 23:39:04 43° W 23:40:16 51° WNW 23:45:40 10° NNE
Cosmos 494 Rocket 4.3 23:35:32 10° NNW 23:40:13 47° W 23:40:13 47° W
USA 81 3.9 23:36:20 10° N 23:41:39 84° W 23:42:25 66° S
USA 215 3.8 23:42:21 37° WSW 23:42:21 37° WSW 23:47:43 10° WNW
Cosmos 1470 3.8 23:39:48 10° N 23:43:28 37° ENE 23:43:58 36° E
Cosmos 1674 Rocket 3.5 23:49:59 74° SE 23:50:13 77° E 23:54:41 10° NNE
Cosmos 2227 Rocket 4.3 23:46:03 10° N 23:50:40 25° NE 23:55:16 10° ESE
CZ-2D R/B 2.6 23:47:06 10° NNE 23:52:26 54° E 23:53:55 41° SSE
Cosmos 2297 Rocket 3.9 23:49:28 10° NNW 23:54:33 32° NE 23:59:35 10° ESE
